TimeCDT,TemperatureF,Dew PointF,Humidity,Sea Level PressureIn,VisibilityMPH,Wind Direction,Wind SpeedMPH,Gust SpeedMPH,PrecipitationIn,Events,Conditions,WindDirDegrees,DateUTC
12:15 AM,78.3,68.2,71,29.86,10.0,NNE,10.4,-,N/A,,Clear,30,2013-07-23 05:15:00
12:35 AM,77.5,66.9,70,29.86,10.0,NNE,9.2,-,N/A,,Clear,30,2013-07-23 05:35:00
12:55 AM,76.6,66.4,70,29.86,10.0,NNE,8.1,-,N/A,,Clear,30,2013-07-23 05:55:00
1:15 AM,75.4,66.2,73,29.86,10.0,NE,6.9,-,N/A,,Clear,40,2013-07-23 06:15:00
1:35 AM,74.8,65.8,73,29.85,10.0,ENE,5.8,-,N/A,,Clear,60,2013-07-23 06:35:00
1:55 AM,74.5,66.2,75,29.85,10.0,ENE,6.9,-,N/A,,Clear,70,2013-07-23 06:55:00
2:15 AM,75.4,68.4,79,29.84,10.0,SE,8.1,-,N/A,,Clear,130,2013-07-23 07:15:00
2:35 AM,75.2,68.9,81,29.84,10.0,SSE,9.2,-,N/A,,Clear,150,2013-07-23 07:35:00
2:55 AM,74.3,68.9,83,29.84,10.0,South,6.9,-,N/A,,Clear,170,2013-07-23 07:55:00
3:15 AM,73.4,68.4,84,29.84,10.0,SSW,5.8,-,N/A,,Clear,200,2013-07-23 08:15:00
3:35 AM,72.5,68.5,87,29.84,10.0,SSW,4.6,-,N/A,,Clear,200,2013-07-23 08:35:00
3:55 AM,72.7,68.9,88,29.84,10.0,SW,3.5,-,N/A,,Clear,220,2013-07-23 08:55:00
4:15 AM,72.5,69.4,90,29.84,10.0,Calm,Calm,-,N/A,,Clear,0,2013-07-23 09:15:00
4:35 AM,71.4,70.2,96,29.84,10.0,North,3.5,-,N/A,,Clear,360,2013-07-23 09:35:00
4:55 AM,71.1,70.2,97,29.85,10.0,North,3.5,-,N/A,,Clear,10,2013-07-23 09:55:00
5:15 AM,71.2,70.3,97,29.86,10.0,North,5.8,-,N/A,,Clear,10,2013-07-23 10:15:00
5:35 AM,71.6,70.2,95,29.87,10.0,NNE,11.5,16.1,N/A,,Scattered Clouds,30,2013-07-23 10:35:00
5:55 AM,71.1,69.6,95,29.88,10.0,NE,10.4,-,N/A,,Scattered Clouds,40,2013-07-23 10:55:00
6:15 AM,70.5,68.9,95,29.88,10.0,NE,12.7,17.3,N/A,,Clear,40,2013-07-23 11:15:00
6:35 AM,70.0,67.1,91,29.90,10.0,NE,16.1,24.2,N/A,Thunderstorm,Mostly Cloudy,40,2013-07-23 11:35:00
6:55 AM,69.8,64.4,83,29.92,10.0,NE,15.0,-,N/A,Thunderstorm,Thunderstorm,40,2013-07-23 11:55:00
7:15 AM,67.5,64.0,89,30.00,3.0,North,23.0,36.8,0.20,Rain-Thunderstorm,Heavy Thunderstorms and Rain,360,2013-07-23 12:15:00
7:35 AM,64.9,64.4,98,30.00,5.0,North,16.1,25.3,0.31,Rain-Thunderstorm,Thunderstorms and Rain,10,2013-07-23 12:35:00
7:55 AM,65.3,64.9,99,29.99,10.0,NNE,10.4,16.1,0.32,Rain,Light Rain,20,2013-07-23 12:55:00
8:15 AM,65.3,64.6,98,29.97,10.0,NE,8.1,-,N/A,Rain-Thunderstorm,Light Thunderstorms and Rain,50,2013-07-23 13:15:00
8:35 AM,65.3,64.6,98,29.99,10.0,North,8.1,-,0.01,Rain,Light Rain,350,2013-07-23 13:35:00
8:55 AM,65.3,64.4,97,29.95,10.0,ENE,10.4,-,0.01,Rain,Light Rain,60,2013-07-23 13:55:00
9:15 AM,65.3,64.4,97,29.91,10.0,East,11.5,-,N/A,,Scattered Clouds,80,2013-07-23 14:15:00
9:35 AM,65.3,64.4,97,29.86,10.0,NE,16.1,-,N/A,Rain,Light Rain,50,2013-07-23 14:35:00
9:55 AM,66.7,64.2,92,29.89,10.0,SSE,9.2,24.2,N/A,,Scattered Clouds,160,2013-07-23 14:55:00
10:15 AM,67.1,64.6,92,29.89,10.0,Calm,Calm,-,N/A,,Scattered Clouds,0,2013-07-23 15:15:00
10:35 AM,67.1,65.3,94,29.90,10.0,South,4.6,20.7,N/A,Rain,Light Rain,180,2013-07-23 15:35:00
10:55 AM,67.3,64.9,92,29.92,10.0,South,8.1,-,N/A,,Scattered Clouds,180,2013-07-23 15:55:00
11:15 AM,68.4,64.8,88,29.94,10.0,South,6.9,-,N/A,,Clear,180,2013-07-23 16:15:00
11:35 AM,69.8,64.2,82,29.96,10.0,Calm,Calm,-,N/A,,Clear,0,2013-07-23 16:35:00
11:55 AM,70.7,63.5,78,29.98,10.0,NNE,3.5,-,N/A,,Clear,30,2013-07-23 16:55:00
12:15 PM,72.7,63.7,73,29.99,10.0,NE,5.8,-,N/A,,Clear,40,2013-07-23 17:15:00
12:35 PM,72.9,63.7,73,29.98,10.0,ENE,6.9,-,N/A,,Clear,70,2013-07-23 17:35:00
12:55 PM,73.0,62.2,69,29.97,10.0,NE,9.2,-,N/A,,Clear,40,2013-07-23 17:55:00
1:15 PM,73.6,62.1,67,29.97,10.0,ENE,10.4,-,N/A,,Clear,60,2013-07-23 18:15:00
1:35 PM,73.6,63.7,71,29.96,10.0,ENE,8.1,-,N/A,,Clear,60,2013-07-23 18:35:00
1:55 PM,73.4,63.3,71,29.95,10.0,NE,5.8,-,N/A,,Clear,50,2013-07-23 18:55:00
2:15 PM,73.4,63.7,71,29.96,10.0,ENE,9.2,-,N/A,,Clear,60,2013-07-23 19:15:00
2:35 PM,73.4,64.4,73,29.96,10.0,ENE,6.9,-,N/A,,Clear,60,2013-07-23 19:35:00
3:15 PM,74.5,64.6,71,29.96,10.0,ENE,5.8,-,N/A,,Scattered Clouds,70,2013-07-23 20:15:00
3:35 PM,76.3,65.3,69,29.96,10.0,ENE,9.2,-,N/A,,Clear,60,2013-07-23 20:35:00
3:55 PM,76.5,65.5,69,29.96,10.0,East,8.1,-,N/A,,Clear,80,2013-07-23 20:55:00
4:15 PM,77.0,64.9,66,29.96,10.0,ENE,6.9,-,N/A,,Scattered Clouds,60,2013-07-23 21:15:00
4:35 PM,76.6,64.9,67,29.96,10.0,NE,4.6,-,N/A,,Scattered Clouds,50,2013-07-23 21:35:00
4:55 PM,77.2,65.1,66,29.96,10.0,NE,6.9,-,N/A,,Mostly Cloudy,50,2013-07-23 21:55:00
5:15 PM,76.8,64.4,65,29.96,10.0,East,3.5,-,N/A,,Scattered Clouds,80,2013-07-23 22:15:00
5:35 PM,77.7,65.5,66,29.96,10.0,East,5.8,-,N/A,,Scattered Clouds,80,2013-07-23 22:35:00
5:55 PM,77.7,65.3,65,29.96,10.0,ENE,4.6,-,N/A,,Scattered Clouds,70,2013-07-23 22:55:00
6:15 PM,77.7,64.4,63,29.95,10.0,Calm,Calm,-,N/A,,Clear,0,2013-07-23 23:15:00
6:35 PM,77.2,64.8,65,29.94,10.0,NE,4.6,-,N/A,,Clear,40,2013-07-23 23:35:00
6:55 PM,77.2,64.9,66,29.94,10.0,ENE,4.6,-,N/A,,Clear,60,2013-07-23 23:55:00
7:15 PM,76.8,65.8,69,29.94,10.0,NE,5.8,-,N/A,,Clear,50,2013-07-24 00:15:00
7:35 PM,76.1,65.7,70,29.94,10.0,NE,4.6,-,N/A,,Clear,50,2013-07-24 00:35:00
7:55 PM,75.2,66.2,73,29.94,10.0,Calm,Calm,-,N/A,,Clear,0,2013-07-24 00:55:00
8:15 PM,73.8,66.7,79,29.95,10.0,Calm,Calm,-,N/A,,Clear,0,2013-07-24 01:15:00
8:35 PM,72.3,66.6,82,29.95,10.0,Calm,Calm,-,N/A,,Clear,0,2013-07-24 01:35:00
8:55 PM,71.8,65.8,81,29.95,10.0,ENE,4.6,-,N/A,,Clear,70,2013-07-24 01:55:00
9:15 PM,70.7,66.2,86,29.96,10.0,ENE,3.5,-,N/A,,Clear,70,2013-07-24 02:15:00
9:35 PM,69.6,65.7,87,29.97,10.0,Calm,Calm,-,N/A,,Clear,0,2013-07-24 02:35:00
9:55 PM,69.8,65.5,86,29.98,10.0,Calm,Calm,-,N/A,,Clear,0,2013-07-24 02:55:00
10:15 PM,68.5,66.7,94,29.98,10.0,NE,3.5,-,N/A,,Clear,50,2013-07-24 03:15:00
10:35 PM,67.8,66.6,96,29.98,10.0,NE,3.5,-,N/A,,Clear,50,2013-07-24 03:35:00
10:55 PM,67.5,66.4,96,29.98,10.0,NE,3.5,-,N/A,,Clear,40,2013-07-24 03:55:00
11:15 PM,66.6,65.8,98,29.99,10.0,Calm,Calm,-,N/A,,Clear,0,2013-07-24 04:15:00
11:35 PM,66.9,65.1,94,30.00,10.0,Calm,Calm,-,N/A,,Clear,0,2013-07-24 04:35:00
11:55 PM,67.1,63.1,87,30.00,10.0,East,4.6,-,N/A,,Clear,90,2013-07-24 04:55:00